EHI
3 5 7 8 9 10 11 11 15 17 17 17 17 14 13 13 11 8 7 8 8 8 9 9 9 9 9 9 7 6 6 5 4 4 2 1 1 2 2 2 3 2 2
4 6 8 8 9 11 11 11 13 16 16 16 17 16 15 14 11 8 7 6 5 5 7 8 8 7 8 8 7 7 7 7 6 5 3 1 1 1 1 2 3 3 4
3 5 7 8 10 11 11 10 10 12 13 13 14 14 14 12 9 8 6 4 3 4 5 6 7 6 6 7 7 7 7 7 7 6 4 2 1 0 0 1 1 3 4
1 2 5 7 9 9 10 10 9 9 10 10 10 10 9 7 6 7 7 6 4 4 5 6 6 6 6 6 6 6 6 7 7 7 5 2 1 1 1 0 0 1 2
0 1 4 7 8 8 9 10 10 9 9 10 10 8 7 5 6 8 9 8 6 5 4 4 5 6 6 5 5 6 6 6 6 6 5 3 2 2 1 0 0 0 1
1 2 5 8 9 8 8 9 9 8 8 9 9 8 8 7 7 9 10 8 6 4 3 3 4 6 7 6 5 6 6 5 5 5 4 3 3 1 1 1 1 1 1
0 2 6 10 10 8 7 7 7 6 6 6 7 8 8 7 6 7 7 6 4 3 3 3 3 5 7 8 7 6 6 5 5 5 4 3 3 1 1 2 3 3 1
1 2 5 9 9 7 7 7 6 5 5 5 6 6 6 5 5 5 4 4 3 2 2 3 3 4 6 7 7 6 6 6 6 5 4 3 3 2 1 2 4 4 2
2 1 4 7 7 5 5 5 5 5 6 6 5 4 5 5 4 4 3 2 2 1 1 1 2 3 5 6 6 6 6 5 4 4 3 4 4 4 3 3 4 4 3
2 2 3 6 6 4 3 3 3 4 5 4 3 2 3 4 3 2 1 1 1 2 1 0 1 1 3 4 4 3 3 3 3 3 3 3 4 4 4 4 5 5 4
2 1 3 4 5 4 3 2 2 1 2 2 1 1 1 1 1 0 0 1 2 2 1 0 0 0 1 2 2 1 1 1 2 3 3 3 4 5 5 5 6 6 6
1 1 3 4 5 4 4 3 1 1 0 1 1 0 0 0 0 0 0 1 1 1 0 0 0 0 0 1 1 0 0 0 2 3 3 2 3 4 5 5 5 6 6
0 2 4 5 5 4 3 3 3 2 2 2 1 1 1 0 0 0 0 0 0 0 0 0 0 0 0 0 0 0 0 0 1 2 2 1 1 2 2 3 4 5 5
1 2 4 4 4 3 3 3 3 3 3 2 1 1 2 1 1 0 1 1 0 0 0 0 0 0 0 0 0 0 0 0 1 1 1 1 0 0 0 1 4 6 6
3 3 3 3 3 3 3 3 3 3 3 2 1 1 2 2 2 2 2 2 1 0 0 0 0 0 0 0 0 0 0 0 0 1 1 1 0 0 0 1 4 5 5
3 3 3 3 3 3 3 3 4 3 3 2 1 0 1 2 3 3 3 3 2 1 0 0 0 0 0 0 0 0 1 0 0 0 0 0 0 0 0 0 1 2 2
3 3 3 4 3 3 3 5 5 4 3 2 1 0 0 1 2 3 3 3 3 1 0 0 0 0 0 0 0 0 0 0 0 0 0 0 0 0 0 0 0 0 0
3 3 4 5 4 4 5 6 6 4 3 2 1 0 0 0 1 2 3 3 3 2 1 0 0 0 0 0 0 0 0 0 0 0 0 0 0 0 0 0 0 0 0
3 4 5 5 6 6 6 6 6 4 2 1 0 0 0 0 0 1 2 3 3 2 1 1 1 1 1 0 0 0 0 0 0 0 0 0 0 0 0 0 0 0 0
3 3 4 5 6 7 6 6 6 4 2 1 0 0 0 0 0 0 1 2 3 2 1 2 3 3 2 1 0 0 0 0 0 0 0 0 0 0 0 0 0 0 0
1 2 3 4 7 7 7 6 6 5 4 2 1 0 0 0 0 1 1 1 2 3 3 4 5 5 3 1 0 0 0 0 0 0 0 0 0 0 0 0 0 0 0
1 1 1 4 7 8 7 6 6 6 5 4 3 2 1 1 1 2 2 2 3 4 4 5 6 5 3 1 1 0 0 0 0 0 0 0 0 0 0 0 0 0 0
2 1 0 2 5 7 6 5 5 5 6 6 5 4 2 2 3 3 3 3 4 5 6 5 5 4 2 1 1 0 0 0 0 0 0 0 0 0 0 0 0 0 0
4 3 2 2 4 5 6 6 6 6 6 6 6 5 4 3 3 3 3 3 4 4 4 3 2 1 1 1 0 0 0 0 0 0 0 0 0 0 0 0 0 0 0
3 4 3 3 3 4 5 6 7 7 6 5 4 4 4 4 3 3 2 2 2 2 1 1 0 0 1 1 0 0 0 0 0 0 0 0 0 0 0 0 0 0 0
2 3 3 3 3 4 4 5 6 7 6 4 3 3 4 4 3 2 1 1 1 0 0 0 0 0 1 0 0 0 0 0 0 0 0 0 0 0 0 0 0 0 0
Wind_Speed
5 5 5 5 4 4 3 3 3 3 3 2 2 2 2 1 1 1 1 1 2 2 3 3 2 3 2 3 3 3 4 4 3 4 4 5 6 6 5 6 6 6 7
5 6 5 5 5 4 4 4 4 3 3 2 1 1 1 1 1 0 1 1 2 2 2 2 3 2 2 3 2 3 4 3 3 4 4 4 4 5 5 5 5 6 6
6 6 6 5 5 4 4 3 3 3 3 2 2 2 2 2 1 1 1 1 2 2 2 2 3 2 3 2 2 3 4 4 3 3 4 4 3 2 3 5 5 5 5
6 6 6 6 5 4 4 3 3 3 3 3 2 3 2 2 1 1 1 1 2 2 2 2 2 2 3 2 3 2 3 4 4 3 4 5 5 4 3 3 4 5 5
5 5 5 5 4 4 3 3 3 2 2 2 2 3 2 2 1 1 1 2 2 2 2 2 2 2 3 2 2 3 4 4 4 4 4 4 4 6 5 4 3 4 4
5 5 4 4 3 3 3 3 3 2 2 2 2 2 2 2 2 2 2 2 1 1 2 2 2 3 2 2 3 3 4 4 4 4 4 4 4 4 4 5 5 4 3
4 5 5 4 3 3 2 2 3 2 2 2 2 2 2 3 3 3 2 2 2 1 1 2 2 3 3 3 3 3 3 4 4 4 4 4 4 4 4 5 5 5 4
4 4 4 3 3 2 1 2 2 2 2 2 2 2 3 3 2 2 2 2 2 1 1 2 2 2 3 2 2 3 3 2 3 4 4 4 4 4 4 4 4 5 4
4 4 4 3 3 2 1 1 1 2 2 2 2 3 2 2 2 2 3 2 1 1 1 1 1 2 2 2 2 2 2 2 3 3 3 4 3 4 4 4 4 5 6
4 4 4 4 3 3 2 2 1 1 1 2 2 1 2 2 2 2 1 1 1 0 1 1 1 1 2 2 2 2 1 2 2 2 3 4 4 3 4 4 4 4 5
4 4 4 4 3 3 3 2 2 1 1 1 1 0 0 0 1 1 1 1 1 1 1 1 1 1 1 1 2 2 2 2 2 3 3 4 4 4 4 3 4 4 4
4 4 4 4 4 3 3 3 2 2 1 1 1 1 1 0 0 0 0 1 1 1 1 1 1 1 1 1 2 3 3 3 3 3 4 4 3 4 4 4 4 4 4
4 4 4 4 3 3 2 3 3 3 2 2 2 2 1 1 1 1 1 0 0 0 1 1 1 2 2 2 2 3 3 3 4 4 4 4 4 5 4 5 5 4 5
4 4 4 3 3 2 2 3 3 3 3 3 2 2 2 1 1 1 1 1 1 0 1 1 1 2 2 2 3 3 4 4 4 4 4 5 4 5 5 4 5 5 5
4 3 3 3 2 2 2 2 2 2 2 2 2 2 2 1 1 1 1 1 0 1 1 1 1 1 2 2 3 4 4 4 4 4 4 4 3 3 4 4 4 5 5
4 3 3 2 2 2 1 2 2 2 2 2 2 2 1 1 1 1 1 1 1 1 1 2 2 2 2 3 3 5 4 4 3 4 4 3 2 2 3 4 5 6 6
4 3 2 2 1 1 1 2 2 2 1 1 1 1 1 0 0 0 1 1 2 2 2 2 2 2 2 2 2 4 4 4 3 4 4 3 2 2 3 3 5 5 6
3 2 2 2 1 1 2 1 2 1 1 1 1 1 1 0 1 1 1 1 2 2 2 2 3 3 1 1 2 3 4 4 3 3 3 3 3 3 4 5 4 4 3
3 2 2 2 2 2 2 2 1 1 1 0 0 1 1 1 1 2 2 2 2 2 3 2 3 3 2 0 1 4 4 3 3 3 3 3 3 1 3 5 5 5 4
3 3 2 2 2 2 2 2 1 1 1 1 1 1 1 2 3 2 3 2 2 3 3 3 3 3 3 1 1 4 4 3 3 3 2 1 2 2 2 4 4 4 4
3 3 3 2 2 2 2 1 1 1 1 1 1 2 2 3 3 3 3 3 3 3 4 4 3 2 2 0 1 3 4 4 4 4 3 0 2 1 2 5 5 4 6
4 4 3 2 2 1 2 1 1 1 1 2 2 2 3 3 2 3 3 3 4 4 4 4 4 2 1 1 1 3 4 6 5 4 3 1 1 2 3 4 4 6 6
3 3 3 2 2 1 2 2 1 1 2 2 2 2 3 3 3 3 3 3 3 4 3 3 3 3 2 1 2 3 4 5 5 3 3 2 3 5 5 5 6 6 5
4 3 3 2 1 1 2 2 1 1 2 2 2 2 3 2 2 3 3 3 3 3 3 3 3 3 2 3 2 2 2 3 4 3 3 5 6 6 4 4 4 4 3
3 3 2 2 1 1 2 2 1 2 2 2 2 3 3 2 2 2 2 3 3 3 4 4 4 4 4 4 6 5 5 5 4 4 4 3 3 3 3 3 3 3 3
3 3 2 1 1 1 1 1 1 2 2 2 2 2 2 2 2 2 1 1 1 0 2 3 4 2 2 3 5 5 5 6 6 5 4 3 3 3 3 3 3 3 3
Wind_Direction
169 161 165 165 162 163 168 174 177 167 180 182 199 193 191 195 182 177 162 223 237 235 249 265 235 247 247 257 261 259 249 252 257 261 256 239 235 235 235 235 241 233 233
167 163 168 167 169 167 170 175 180 179 192 185 198 206 195 210 183 152 164 222 238 247 242 250 256 250 248 241 253 258 270 271 258 271 275 260 234 225 231 231 233 240 236
175 173 172 169 165 163 167 168 174 190 195 192 190 175 185 211 199 198 199 217 235 245 271 259 262 261 255 249 253 246 249 267 264 257 268 275 271 269 220 231 238 239 243
171 172 170 167 166 164 157 160 174 186 181 195 202 212 220 227 224 231 211 228 234 245 250 258 258 263 264 252 252 261 261 258 260 244 248 268 293 278 259 229 228 233 236
166 166 166 162 161 159 153 152 150 154 167 202 202 224 233 233 231 240 233 249 231 241 254 257 261 259 264 268 275 266 260 256 263 263 254 248 248 253 262 267 256 242 239
158 153 147 145 151 152 156 154 152 157 167 188 200 224 232 241 246 250 257 251 239 239 253 258 263 260 265 253 254 259 250 261 268 271 271 264 257 250 253 260 259 260 255
146 141 138 138 139 150 165 172 165 163 175 188 202 213 229 235 236 253 252 266 266 262 253 265 262 261 256 257 259 255 261 256 256 261 268 276 276 274 266 269 271 270 264
144 142 130 126 129 139 154 172 167 178 186 187 196 209 230 241 245 257 266 259 275 299 296 249 255 264 263 261 258 257 255 260 260 262 269 273 278 277 268 269 271 269 263
143 136 125 118 110 102 95 132 158 187 197 193 197 209 228 249 253 243 248 258 265 255 269 269 265 270 274 277 267 271 270 268 266 265 255 262 270 266 269 270 267 269 272
143 131 123 115 106 101 97 98 141 191 200 192 223 208 222 238 239 245 268 309 310 309 266 276 281 283 272 265 262 258 251 261 270 276 282 279 277 279 270 270 271 271 274
138 132 124 118 114 103 95 95 101 124 146 159 169 194 243 277 251 224 206 219 242 221 248 273 291 278 277 277 266 272 258 253 259 262 260 266 277 275 278 272 267 269 266
133 131 124 116 106 94 82 74 65 68 80 104 118 107 102 90 310 38 211 175 204 241 267 280 284 280 284 290 283 284 276 269 270 274 270 267 261 260 268 267 262 267 268
128 127 124 115 102 94 83 70 64 60 57 79 114 112 99 87 66 46 44 91 97 17 296 286 283 288 289 280 279 281 277 277 278 279 277 275 271 269 269 267 263 259 255
125 123 121 114 102 93 87 79 70 66 65 67 81 94 85 77 77 73 55 40 48 16 314 303 301 302 301 299 293 290 284 281 282 282 280 279 274 273 274 269 268 266 264
133 132 129 116 117 108 100 91 80 75 72 71 73 85 90 92 97 88 64 46 354 299 296 296 305 306 291 332 325 301 291 289 289 287 284 286 298 322 308 299 295 283 271
152 145 133 131 132 129 132 124 111 100 94 84 76 86 105 108 113 100 39 14 344 327 314 308 314 323 342 43 350 306 297 297 295 296 296 283 247 245 260 280 292 295 281
158 153 147 141 144 155 167 160 152 142 124 109 104 104 119 125 173 352 24 352 329 324 324 320 318 318 9 52 312 300 295 293 298 297 294 294 313 273 279 256 245 259 262
156 156 151 139 134 157 172 166 160 156 156 156 118 97 99 59 299 301 331 328 320 314 308 304 306 306 343 80 284 284 265 282 287 282 278 283 291 299 308 295 292 289 278
145 145 144 143 147 154 168 175 178 186 200 243 311 336 327 309 297 295 301 305 302 298 291 287 293 295 314 79 278 281 267 264 273 274 280 282 281 350 306 281 282 285 278
138 140 144 144 144 152 160 182 196 212 230 264 280 285 287 287 284 286 286 295 292 290 292 300 298 296 306 50 250 272 277 284 279 271 260 275 301 340 269 272 279 282 288
144 146 149 152 156 161 170 195 219 249 264 278 281 275 270 266 268 273 274 283 284 290 287 287 283 289 317 7 213 251 285 297 292 291 282 295 135 262 257 267 278 286 290
151 152 154 150 159 182 201 223 257 287 272 275 282 279 275 278 280 266 265 270 278 272 266 266 274 275 254 285 198 224 256 295 296 299 305 3 121 230 256 257 280 278 271
157 162 171 170 179 211 245 247 263 285 275 269 281 281 277 279 283 276 269 267 266 274 282 287 293 299 304 153 184 215 241 258 273 301 339 325 240 229 230 232 252 258 258
163 169 175 186 206 239 258 271 268 273 273 268 273 268 264 266 278 282 281 292 298 296 297 301 306 309 309 326 335 296 242 233 245 265 238 230 235 241 256 240 234 249 272
159 166 180 201 227 257 269 279 285 276 275 270 265 269 269 284 273 274 328 312 337 343 319 320 321 320 324 353 352 327 325 319 318 298 270 266 263 263 265 271 274 262 251
162 166 176 200 252 270 273 285 289 288 287 274 272 276 281 278 270 254 227 43 326 267 257 284 297 323 338 325 324 320 307 300 296 285 278 283 286 291 293 286 277 268 271